TimeCST,TemperatureF,Dew PointF,Humidity,Sea Level PressureIn,VisibilityMPH,Wind Direction,Wind SpeedMPH,Gust SpeedMPH,PrecipitationIn,Events,Conditions,WindDirDegrees,DateUTC
12:15 AM,38.5,24.3,57,30.20,10.0,SW,13.8,-,N/A,,Clear,220,2013-01-18 06:15:00
12:35 AM,39.2,23.9,54,30.18,10.0,SW,12.7,-,N/A,,Clear,230,2013-01-18 06:35:00
12:55 AM,38.8,23.9,55,30.18,10.0,SW,11.5,18.4,N/A,,Clear,230,2013-01-18 06:55:00
1:15 AM,38.3,23.9,56,30.18,10.0,SW,13.8,-,N/A,,Clear,230,2013-01-18 07:15:00
1:35 AM,36.1,23.9,61,30.17,10.0,WSW,8.1,-,N/A,,Clear,250,2013-01-18 07:35:00
1:55 AM,36.5,23.7,60,30.17,10.0,SW,10.4,-,N/A,,Clear,230,2013-01-18 07:55:00
2:15 AM,36.7,23.9,60,30.16,10.0,SW,10.4,-,N/A,,Clear,230,2013-01-18 08:15:00
2:35 AM,35.2,23.5,62,30.15,10.0,West,5.8,-,N/A,,Clear,270,2013-01-18 08:35:00
2:55 AM,34.5,23.4,64,30.14,10.0,West,4.6,-,N/A,,Clear,280,2013-01-18 08:55:00
3:15 AM,32.4,23.7,70,30.14,10.0,West,5.8,-,N/A,,Clear,260,2013-01-18 09:15:00
3:35 AM,32.0,23.0,69,30.13,10.0,West,5.8,-,N/A,,Clear,280,2013-01-18 09:35:00
3:55 AM,29.3,22.3,75,30.12,10.0,Calm,Calm,-,N/A,,Clear,0,2013-01-18 09:55:00
4:15 AM,31.3,22.6,70,30.11,10.0,WSW,3.5,-,N/A,,Clear,240,2013-01-18 10:15:00
4:35 AM,30.0,22.3,73,30.09,10.0,WSW,4.6,-,N/A,,Clear,250,2013-01-18 10:35:00
4:55 AM,27.7,21.6,78,30.08,10.0,West,6.9,-,N/A,,Clear,270,2013-01-18 10:55:00
5:15 AM,28.4,22.3,78,30.07,10.0,WSW,8.1,-,N/A,,Clear,240,2013-01-18 11:15:00
5:35 AM,27.5,22.1,80,30.07,10.0,WSW,5.8,-,N/A,,Clear,240,2013-01-18 11:35:00
5:55 AM,27.5,22.5,81,30.06,10.0,SW,6.9,-,N/A,,Clear,230,2013-01-18 11:55:00
6:15 AM,26.6,21.4,81,30.05,10.0,WSW,4.6,-,N/A,,Clear,240,2013-01-18 12:15:00
6:35 AM,24.8,20.5,84,30.05,10.0,West,4.6,-,N/A,,Clear,260,2013-01-18 12:35:00
6:55 AM,24.8,20.1,82,30.04,10.0,West,5.8,-,N/A,,Clear,260,2013-01-18 12:55:00
7:15 AM,23.9,19.8,84,30.04,10.0,West,6.9,-,N/A,,Clear,260,2013-01-18 13:15:00
7:35 AM,22.5,19.2,87,30.04,10.0,West,6.9,-,N/A,,Clear,280,2013-01-18 13:35:00
7:55 AM,21.0,18.1,89,30.05,10.0,NW,8.1,-,N/A,,Clear,320,2013-01-18 13:55:00
8:15 AM,20.7,17.8,89,30.04,10.0,NW,5.8,-,N/A,,Clear,310,2013-01-18 14:15:00
8:35 AM,22.1,19.0,88,30.04,10.0,WNW,8.1,-,N/A,,Clear,300,2013-01-18 14:35:00
8:55 AM,27.1,22.6,83,30.05,10.0,WNW,9.2,-,N/A,,Clear,290,2013-01-18 14:55:00
9:15 AM,29.3,23.0,77,30.05,10.0,West,8.1,-,N/A,,Clear,280,2013-01-18 15:15:00
9:35 AM,30.2,23.2,75,30.05,10.0,WNW,6.9,-,N/A,,Clear,290,2013-01-18 15:35:00
9:55 AM,32.0,23.7,71,30.05,10.0,West,9.2,-,N/A,,Clear,280,2013-01-18 15:55:00
10:15 AM,35.8,24.3,63,30.05,10.0,WNW,11.5,-,N/A,,Clear,290,2013-01-18 16:15:00
10:35 AM,40.1,24.6,54,30.05,10.0,WNW,13.8,-,N/A,,Clear,290,2013-01-18 16:35:00
10:55 AM,43.2,24.3,47,30.04,10.0,WNW,11.5,-,N/A,,Clear,290,2013-01-18 16:55:00
11:15 AM,45.7,22.6,40,30.04,10.0,WNW,12.7,-,N/A,,Clear,300,2013-01-18 17:15:00
11:35 AM,48.0,20.8,34,30.02,10.0,WNW,17.3,-,N/A,,Clear,300,2013-01-18 17:35:00
11:55 AM,48.7,19.2,31,30.01,10.0,WNW,17.3,-,N/A,,Clear,290,2013-01-18 17:55:00
12:15 PM,49.5,19.8,31,30.00,10.0,WNW,19.6,-,N/A,,Clear,290,2013-01-18 18:15:00
12:35 PM,50.4,21.0,32,29.99,10.0,WNW,17.3,-,N/A,,Clear,290,2013-01-18 18:35:00
12:55 PM,51.1,21.2,31,29.98,10.0,WNW,17.3,-,N/A,,Clear,300,2013-01-18 18:55:00
1:15 PM,52.9,21.9,30,29.98,10.0,WNW,12.7,-,N/A,,Clear,300,2013-01-18 19:15:00
1:35 PM,54.1,22.5,29,29.97,10.0,WNW,13.8,-,N/A,,Clear,300,2013-01-18 19:35:00
1:55 PM,55.2,22.6,28,29.97,10.0,WNW,11.5,-,N/A,,Clear,290,2013-01-18 19:55:00
2:15 PM,56.7,22.8,27,29.97,10.0,West,9.2,-,N/A,,Clear,280,2013-01-18 20:15:00
2:35 PM,57.2,21.9,26,29.96,10.0,West,9.2,-,N/A,,Clear,280,2013-01-18 20:35:00
2:55 PM,57.7,21.6,25,29.96,10.0,West,11.5,-,N/A,,Clear,270,2013-01-18 20:55:00
3:15 PM,58.5,21.4,24,29.95,10.0,West,11.5,-,N/A,,Clear,270,2013-01-18 21:15:00
3:35 PM,58.8,21.7,24,29.96,10.0,West,6.9,-,N/A,,Clear,260,2013-01-18 21:35:00
3:55 PM,58.5,21.6,24,29.95,10.0,WSW,6.9,-,N/A,,Clear,250,2013-01-18 21:55:00
4:15 PM,58.1,21.6,24,29.95,10.0,West,9.2,-,N/A,,Clear,260,2013-01-18 22:15:00
4:35 PM,56.8,20.8,25,29.95,10.0,West,9.2,-,N/A,,Clear,260,2013-01-18 22:35:00
4:55 PM,54.9,20.8,27,29.95,10.0,West,9.2,-,N/A,,Clear,270,2013-01-18 22:55:00
5:15 PM,50.5,21.6,32,29.95,10.0,West,9.2,-,N/A,,Clear,260,2013-01-18 23:15:00
5:35 PM,48.9,20.3,32,29.96,10.0,WSW,6.9,-,N/A,,Clear,250,2013-01-18 23:35:00
5:55 PM,42.8,21.2,42,29.96,7.0,SW,8.1,-,N/A,,Clear,220,2013-01-18 23:55:00
6:15 PM,44.2,21.9,41,29.95,10.0,SW,9.2,-,N/A,,Clear,230,2013-01-19 00:15:00
6:35 PM,41.4,22.8,48,29.95,10.0,SW,6.9,-,N/A,,Clear,220,2013-01-19 00:35:00
6:55 PM,38.1,23.7,56,29.96,10.0,SSW,10.4,-,N/A,,Clear,210,2013-01-19 00:55:00
7:15 PM,38.1,23.5,56,29.96,10.0,WSW,8.1,-,N/A,,Clear,240,2013-01-19 01:15:00
7:35 PM,36.7,23.4,59,29.96,10.0,WSW,4.6,-,N/A,,Clear,240,2013-01-19 01:35:00
7:55 PM,36.5,23.5,59,29.96,10.0,SW,5.8,-,N/A,,Clear,230,2013-01-19 01:55:00
8:15 PM,36.3,23.7,60,29.96,10.0,West,6.9,-,N/A,,Clear,270,2013-01-19 02:15:00
8:35 PM,30.7,23.0,73,29.96,10.0,WNW,4.6,-,N/A,,Clear,290,2013-01-19 02:35:00
8:55 PM,31.6,23.2,71,29.95,10.0,West,3.5,-,N/A,,Clear,270,2013-01-19 02:55:00
9:15 PM,33.6,23.0,65,29.95,10.0,SW,4.6,-,N/A,,Clear,230,2013-01-19 03:15:00
9:35 PM,28.6,23.0,80,29.95,10.0,North,4.6,-,N/A,,Clear,350,2013-01-19 03:35:00
9:55 PM,28.6,22.6,78,29.95,10.0,NW,6.9,-,N/A,,Clear,320,2013-01-19 03:55:00
10:15 PM,29.1,21.9,74,29.95,10.0,NNW,6.9,-,N/A,,Clear,330,2013-01-19 04:15:00
10:35 PM,28.9,22.1,76,29.93,10.0,NNW,5.8,-,N/A,,Clear,330,2013-01-19 04:35:00
10:55 PM,28.8,21.7,75,29.93,10.0,NW,4.6,-,N/A,,Clear,320,2013-01-19 04:55:00
11:15 PM,28.8,21.4,74,29.94,10.0,WNW,6.9,-,N/A,,Clear,290,2013-01-19 05:15:00
11:35 PM,29.8,22.5,74,29.93,10.0,WNW,11.5,-,N/A,,Clear,290,2013-01-19 05:35:00
11:55 PM,29.8,21.6,71,29.93,10.0,WNW,8.1,-,N/A,,Clear,300,2013-01-19 05:55:00